Weather History for Indian Mountain, AK

Change the Weather History Date:

Wednesday, January 23, 2013

  Actual Average Record
Temperature  
Mean Temperature 2 °F -  
Max Temperature 6 °F 4 °F 32 °F (2014)
Min Temperature -3 °F -4 °F -38 °F (2011)
Degree Days  
Heating Degree Days 64    
Moisture  
Dew Point -22 °F    
Average Humidity 30    
Maximum Humidity 40    
Minimum Humidity 25    
Precipitation  
Precipitation 0.00 in - - ()
Sea Level Pressure  
Sea Level Pressure 29.93 in    
Wind  
Wind Speed 22 mph (East)    
Max Wind Speed 28 mph    
Max Gust Speed 46 mph    
Visibility 10 miles    
Events Snow    
Averages and records for this station are not official NWS values.
T = Trace of Precipitation, MM = Missing Value Source: NWS Daily Summary

Daily Weather History Graph

Daily Weather History Graph

Search for Another Location

Airport:

Trip Planner

Search our weather history database for the weather conditions in past years. The results will help you decide how hot, cold, wet, or windy it might be!

Date:

Astronomy

Jan. 23, 2013 Rise Set
Actual Time 10:39 AM AKST 4:14 PM AKST
Civil Twilight 9:30 AM AKST 5:24 PM AKST
Nautical Twilight 8:23 AM AKST 6:31 PM AKST
Astronomical Twilight 7:22 AM AKST 7:32 PM AKST
Moon 1:02 PM AKST (1/23) 8:32 AM AKST (1/23)
Length of Visible Light 7h 54m
Length of Day
5h 34m
Waxing Gibbous, 90% of the Moon is Illuminated
Jan 23
Waxing Gibbous
Jan 26
Full
Feb 3
Last Quarter
Feb 9
New
Feb 17
First Quarter

Hourly Weather History & Observations

Time (AKST) Temp. Windchill Dew Point Humidity Pressure Visibility Wind Dir Wind Speed Gust Speed Precip Events Conditions
12:08 AM 5.0 °F -17.5 °F -18.4 °F 33% 29.95 in 9.0 mi East 25.3 mph 44.9 mph N/A Snow Light Snow
12:55 AM 4.8 °F -16.0 °F -18.9 °F 33% 29.96 in 10.0 mi East 20.7 mph 40.3 mph N/A   Clear
1:55 AM 5.0 °F -14.7 °F -20.0 °F 31% 29.96 in 10.0 mi East 18.4 mph 38.0 mph N/A   Clear
2:28 AM 5.0 °F -16.7 °F -20.2 °F 30% 29.96 in 10.0 mi East 23.0 mph 40.3 mph N/A Snow Light Snow
3:08 AM 5.0 °F -17.1 °F -20.2 °F 30% 29.95 in 10.0 mi East 24.2 mph 38.0 mph N/A   Clear
3:55 AM 5.0 °F -15.7 °F -21.5 °F 29% 29.94 in 10.0 mi East 20.7 mph 43.7 mph N/A   Clear
4:55 AM 5.4 °F -14.8 °F -21.8 °F 28% 29.94 in 10.0 mi East 19.6 mph 36.8 mph N/A   Clear
5:55 AM 5.5 °F -16.8 °F -21.6 °F 28% 29.92 in 10.0 mi ENE 25.3 mph 46.0 mph N/A   Clear
6:28 AM 6.8 °F -15.5 °F -22.0 °F 26% 29.91 in 10.0 mi East 26.5 mph 46.0 mph N/A Snow Light Snow Showers
6:55 AM 5.7 °F -16.1 °F -22.0 °F 27% 29.91 in 10.0 mi East 24.2 mph 42.6 mph N/A Snow Light Snow Showers
7:08 AM 5.0 °F -16.7 °F -22.0 °F 28% 29.91 in 10.0 mi East 23.0 mph 39.1 mph N/A   Clear
7:28 AM 5.0 °F -16.7 °F -22.0 °F 28% 29.91 in 10.0 mi East 23.0 mph 35.7 mph N/A Snow Light Snow Showers
7:48 AM 5.0 °F -16.7 °F -22.0 °F 28% 29.91 in 10.0 mi East 23.0 mph 40.3 mph N/A   Clear
7:55 AM 5.4 °F -16.6 °F -22.4 °F 27% 29.91 in 10.0 mi East 24.2 mph 39.1 mph N/A   Clear
8:55 AM 4.3 °F -14.5 °F -22.2 °F 28% 29.92 in 10.0 mi East 16.1 mph 32.2 mph N/A   Clear
9:48 AM 5.0 °F -15.2 °F -23.8 °F 25% 29.92 in 10.0 mi East 19.6 mph 42.6 mph N/A Snow Light Snow Showers
9:55 AM 3.7 °F -17.4 °F -22.7 °F 28% 29.92 in 10.0 mi East 20.7 mph 36.8 mph N/A   Clear
10:55 AM 3.4 °F -20.1 °F -24.5 °F 26% 29.92 in 10.0 mi East 26.5 mph 40.3 mph N/A   Clear
11:08 AM 3.2 °F -18.6 °F -23.8 °F 28% 29.93 in 8.0 mi East 21.9 mph 41.4 mph N/A Snow Light Snow
11:28 AM 3.2 °F -18.6 °F -23.8 °F 28% 29.93 in 10.0 mi East 21.9 mph 41.4 mph N/A   Clear
11:48 AM 3.2 °F -18.6 °F -23.8 °F 28% 29.92 in 10.0 mi East 21.9 mph 39.1 mph N/A Snow Light Snow Showers
11:55 AM 2.8 °F -21.2 °F -23.4 °F 29% 29.92 in 10.0 mi East 27.6 mph 39.1 mph N/A Snow Light Snow Showers
12:55 PM 3.0 °F -18.3 °F -22.5 °F 30% 29.91 in 10.0 mi East 20.7 mph 40.3 mph N/A   Clear
1:55 PM 2.7 °F -20.6 °F -22.7 °F 30% 29.91 in 10.0 mi East 25.3 mph 38.0 mph N/A   Clear
2:55 PM 2.1 °F -20.0 °F -22.9 °F 30% 29.90 in 10.0 mi East 21.9 mph 36.8 mph N/A   Clear
3:55 PM 1.2 °F -20.2 °F -23.6 °F 30% 29.91 in 10.0 mi East 19.6 mph 33.4 mph N/A   Clear
4:55 PM 0.5 °F -18.7 °F -24.0 °F 31% 29.91 in 10.0 mi East 15.0 mph 26.5 mph N/A   Clear
5:55 PM -0.8 °F -23.3 °F -24.2 °F 32% 29.91 in 10.0 mi East 20.7 mph 40.3 mph N/A   Clear
6:55 PM -1.7 °F -23.4 °F -23.8 °F 34% 29.92 in 10.0 mi East 18.4 mph 34.5 mph N/A   Clear
7:55 PM -2.2 °F -22.9 °F -23.4 °F 36% 29.93 in 10.0 mi East 16.1 mph 33.4 mph N/A   Clear
8:55 PM -2.0 °F -25.0 °F -22.2 °F 38% 29.93 in 10.0 mi East 20.7 mph 33.4 mph N/A   Clear
9:55 PM -3.1 °F -25.3 °F -22.0 °F 40% 29.95 in 10.0 mi East 18.4 mph 34.5 mph N/A   Clear
10:55 PM -3.5 °F -26.9 °F -22.7 °F 39% 29.95 in 10.0 mi East 20.7 mph 39.1 mph N/A   Clear
11:55 PM -3.6 °F -27.6 °F -24.0 °F 37% 29.96 in 10.0 mi East 21.9 mph 38.0 mph N/A   Clear